Location: Unspecified
(0.0000°N, 0.0000°E)
Time: 18:00:36
(UTC+00:00)

STARLINK 1027 - Pass Details

Date: 17 January 2020
Orbit: 401 x 403 km, 53.0° (Epoch: 18 January)

Event Time Altitude Azimuth Distance (km) Brightness Sun altitude
Rises 04:42:58 0° 187° (S) 2,309 7.0 -20.2°
Reaches altitude 10° 04:45:38 10° 164° (SSE) 1,448 6.3 -19.6°
Maximum altitude 04:47:41 16° 125° (SE) 1,157 6.3 -19.1°
Drops below altitude 10° 04:49:42 10° 85° (E) 1,443 6.7 -18.7°
Sets 04:52:21 0° 62° (ENE) 2,298 7.4 -18.1°
